Weather History for Presque Isle, ME

Change the Weather History Date:

Saturday, March 9, 2013

  Actual Average Record
Temperature  
Mean Temperature 29 °F -  
Max Temperature 39 °F 31 °F 49 °F (1977)
Min Temperature 19 °F 7 °F -22 °F (1967)
Degree Days  
Heating Degree Days 36    
Moisture  
Dew Point 19 °F    
Average Humidity 69    
Maximum Humidity 93    
Minimum Humidity 45    
Precipitation  
Precipitation 0.00 in - - ()
Sea Level Pressure  
Sea Level Pressure 30.27 in    
Wind  
Wind Speed 7 mph (NNE)    
Max Wind Speed 12 mph    
Max Gust Speed -    
Visibility 10 miles    
Events      
Averages and records for this station are not official NWS values.
T = Trace of Precipitation, MM = Missing Value Source: NWS Daily Summary

Daily Weather History Graph

Daily Weather History Graph

Search for Another Location

Airport:

Trip Planner

Search our weather history database for the weather conditions in past years. The results will help you decide how hot, cold, wet, or windy it might be!

Date:

Astronomy

Mar. 09, 2013 Rise Set
Actual Time 5:56 AM EST 5:29 PM EST
Civil Twilight 5:26 AM EST 5:59 PM EST
Nautical Twilight 4:51 AM EST 6:35 PM EST
Astronomical Twilight 4:15 AM EST 7:10 PM EST
Moon 4:24 AM EST (3/9) 3:22 PM EST (3/9)
Length of Visible Light 12h 33m
Length of Day
11h 33m
Waning Crescent, 5% of the Moon is Illuminated
Mar 9
Waning Crescent
Mar 11
New
Mar 19
First Quarter
Mar 27
Full
Apr 3
Last Quarter

Hourly Weather History & Observations

Time (EST) Temp. Windchill Dew Point Humidity Pressure Visibility Wind Dir Wind Speed Gust Speed Precip Events Conditions
12:15 AM 26.6 °F 17.5 °F 19.4 °F 74% 30.23 in 10.0 mi North 9.2 mph - N/A   Clear
12:35 AM 26.6 °F 17.5 °F 19.4 °F 74% 30.24 in 10.0 mi North 9.2 mph - N/A   Clear
12:55 AM 26.6 °F 17.5 °F 19.4 °F 74% 30.23 in 10.0 mi North 9.2 mph - N/A   Clear
1:15 AM 26.6 °F 18.2 °F 19.4 °F 74% 30.23 in 10.0 mi NNE 8.1 mph - N/A   Clear
1:35 AM 24.8 °F 16.1 °F 19.4 °F 80% 30.23 in 10.0 mi North 8.1 mph - N/A   Clear
1:55 AM 24.8 °F 16.1 °F 19.4 °F 80% 30.22 in 10.0 mi North 8.1 mph - N/A   Clear
2:15 AM 24.8 °F 15.3 °F 19.4 °F 80% 30.22 in 10.0 mi North 9.2 mph - N/A   Clear
2:35 AM 24.8 °F 14.0 °F 17.6 °F 74% 30.22 in 10.0 mi North 11.5 mph - N/A   Clear
3:15 AM 24.8 °F 16.1 °F 17.6 °F 74% 30.22 in 10.0 mi North 8.1 mph - N/A   Partly Cloudy
3:35 AM 23.0 °F 13.1 °F 17.6 °F 80% 30.22 in 10.0 mi North 9.2 mph - N/A   Mostly Cloudy
3:55 AM 24.8 °F 15.3 °F 19.4 °F 80% 30.23 in 10.0 mi North 9.2 mph - N/A   Overcast
4:15 AM 24.8 °F 15.3 °F 19.4 °F 80% 30.24 in 10.0 mi North 9.2 mph - N/A   Overcast
4:35 AM 24.8 °F 16.9 °F 19.4 °F 80% 30.24 in 10.0 mi North 6.9 mph - N/A   Overcast
4:55 AM 24.8 °F 19.1 °F 19.4 °F 80% 30.24 in 10.0 mi NNE 4.6 mph - N/A   Overcast
5:15 AM 24.8 °F 17.9 °F 19.4 °F 80% 30.24 in 10.0 mi North 5.8 mph - N/A   Overcast
5:35 AM 24.8 °F 16.1 °F 19.4 °F 80% 30.25 in 10.0 mi North 8.1 mph - N/A   Overcast
5:55 AM 24.8 °F 16.1 °F 21.2 °F 86% 30.25 in 10.0 mi North 8.1 mph - N/A   Overcast
6:15 AM 26.6 °F 20.0 °F 19.4 °F 74% 30.26 in 10.0 mi North 5.8 mph - N/A   Overcast
6:35 AM 26.6 °F 19.1 °F 19.4 °F 74% 30.27 in 10.0 mi North 6.9 mph - N/A   Overcast
6:55 AM 26.6 °F 18.2 °F 19.4 °F 74% 30.27 in 10.0 mi NNE 8.1 mph - N/A   Overcast
7:15 AM 26.6 °F 20.0 °F 19.4 °F 74% 30.28 in 10.0 mi NNE 5.8 mph - N/A   Overcast
7:35 AM 26.6 °F 18.2 °F 19.4 °F 74% 30.28 in 10.0 mi NE 8.1 mph - N/A   Overcast
7:55 AM 26.6 °F 16.2 °F 19.4 °F 74% 30.29 in 10.0 mi NE 11.5 mph - N/A   Overcast
8:15 AM 26.6 °F 16.2 °F 19.4 °F 74% 30.28 in 10.0 mi ENE 11.5 mph - N/A   Overcast
8:35 AM 26.6 °F 18.2 °F 19.4 °F 74% 30.28 in 10.0 mi NE 8.1 mph - N/A   Overcast
8:55 AM 28.4 °F 20.4 °F 19.4 °F 69% 30.28 in 10.0 mi ENE 8.1 mph - N/A   Overcast
9:15 AM 28.4 °F 21.2 °F 19.4 °F 69% 30.29 in 10.0 mi NNE 6.9 mph - N/A   Overcast
9:35 AM 28.4 °F 18.5 °F 19.4 °F 69% 30.29 in 10.0 mi North 11.5 mph - N/A   Overcast
10:15 AM 28.4 °F 19.7 °F 19.4 °F 69% 30.29 in 10.0 mi North 9.2 mph - N/A   Overcast
10:35 AM 30.2 °F 22.6 °F 19.4 °F 64% 30.29 in 10.0 mi NNW 8.1 mph - N/A   Overcast
10:55 AM 30.2 °F 22.6 °F 19.4 °F 64% 30.29 in 10.0 mi NE 8.1 mph - N/A   Mostly Cloudy
11:15 AM 32.0 °F 25.6 °F 19.4 °F 60% 30.29 in 10.0 mi East 6.9 mph - N/A   Partly Cloudy
11:35 AM 32.0 °F 25.6 °F 19.4 °F 60% 30.28 in 10.0 mi NE 6.9 mph - N/A   Partly Cloudy
11:55 AM 33.8 °F 27.7 °F 19.4 °F 56% 30.27 in 10.0 mi NE 6.9 mph - N/A   Clear
12:15 PM 33.8 °F 27.0 °F 19.4 °F 56% 30.27 in 10.0 mi NNE 8.1 mph - N/A   Clear
12:35 PM 33.8 °F 28.6 °F 19.4 °F 56% 30.27 in 10.0 mi NNE 5.8 mph - N/A   Clear
12:55 PM 33.8 °F 30.8 °F 19.4 °F 56% 30.26 in 10.0 mi NE 3.5 mph - N/A   Clear
1:15 PM 33.8 °F 28.6 °F 19.4 °F 56% 30.26 in 10.0 mi North 5.8 mph - N/A   Clear
1:55 PM 35.6 °F 30.7 °F 19.4 °F 52% 30.26 in 10.0 mi North 5.8 mph - N/A   Clear
2:15 PM 35.6 °F 29.2 °F 19.4 °F 52% 30.26 in 10.0 mi North 8.1 mph - N/A   Clear
2:35 PM 35.6 °F 30.7 °F 21.2 °F 56% 30.26 in 10.0 mi North 5.8 mph - N/A   Clear
2:55 PM 37.4 °F 32.8 °F 21.2 °F 52% 30.25 in 10.0 mi North 5.8 mph - N/A   Clear
3:15 PM 37.4 °F 32.1 °F 21.2 °F 52% 30.26 in 10.0 mi North 6.9 mph - N/A   Clear
3:35 PM 37.4 °F 32.8 °F 19.4 °F 48% 30.25 in 10.0 mi North 5.8 mph - N/A   Clear
3:55 PM 37.4 °F 32.8 °F 19.4 °F 48% 30.26 in 10.0 mi NNW 5.8 mph - N/A   Clear
4:15 PM 37.4 °F 34.9 °F 19.4 °F 48% 30.26 in 10.0 mi North 3.5 mph - N/A   Clear
4:35 PM 39.2 °F - 19.4 °F 45% 30.26 in 10.0 mi Calm Calm - N/A   Clear
4:55 PM 39.2 °F - 19.4 °F 45% 30.26 in 10.0 mi Calm Calm - N/A   Clear
5:15 PM 37.4 °F - 19.4 °F 48% 30.27 in 10.0 mi Calm Calm - N/A   Clear
5:35 PM 35.6 °F - 19.4 °F 52% 30.26 in 10.0 mi Calm Calm - N/A   Clear
5:55 PM 32.0 °F - 21.2 °F 64% 30.26 in 10.0 mi Calm Calm - N/A   Clear
6:15 PM 28.4 °F - 19.4 °F 69% 30.28 in 10.0 mi Calm Calm - N/A   Clear
6:35 PM 28.4 °F - 19.4 °F 69% 30.28 in - Calm Calm - N/A   Clear
6:55 PM 30.2 °F - 21.2 °F 69% 30.29 in - Calm Calm - N/A   Clear
7:15 PM 28.4 °F - 19.4 °F 69% 30.29 in - Calm Calm - N/A   Clear
7:35 PM 30.2 °F 25.4 °F 19.4 °F 64% 30.29 in - SE 4.6 mph - N/A   Clear
7:55 PM 30.2 °F 26.7 °F 21.2 °F 69% 30.30 in 10.0 mi ESE 3.5 mph - N/A   Clear
8:15 PM 30.2 °F 25.4 °F 19.4 °F 64% 30.30 in 10.0 mi ESE 4.6 mph - N/A   Clear
8:35 PM 28.4 °F 24.6 °F 21.2 °F 74% 30.30 in 10.0 mi SE 3.5 mph - N/A   Clear
8:55 PM 28.4 °F - 21.2 °F 74% 30.31 in 10.0 mi Calm Calm - N/A   Clear
9:15 PM 28.4 °F - 21.2 °F 74% 30.30 in 10.0 mi Calm Calm - N/A   Clear
9:35 PM 26.6 °F - 19.4 °F 74% 30.30 in 10.0 mi Calm Calm - N/A   Clear
9:55 PM 26.6 °F - 19.4 °F 74% 30.30 in 10.0 mi Calm Calm - N/A   Clear
10:15 PM 26.6 °F - 21.2 °F 80% 30.31 in 10.0 mi Calm Calm - N/A   Clear
10:35 PM 24.8 °F 20.5 °F 19.4 °F 80% 30.32 in 10.0 mi NW 3.5 mph - N/A   Clear
10:55 PM 21.2 °F - 17.6 °F 86% 30.32 in 10.0 mi Calm Calm - N/A   Clear
11:15 PM 19.4 °F - 17.6 °F 93% 30.32 in - Calm Calm - N/A   Unknown
11:35 PM 21.2 °F - 17.6 °F 86% 30.32 in 10.0 mi Calm Calm - N/A   Clear
11:55 PM 19.4 °F - 15.8 °F 86% 30.33 in 10.0 mi Calm Calm - N/A   Clear